Location: Bucknum
(43.0208°N, 106.6262°W)
Time: 12:19:40
(UTC+00:00)

N. Korean satellite - Visible Passes

Search period start: 22 January 2022 00:00
Search period end: 01 February 2022 00:00
Orbit: 447 x 491 km, 97.3° (Epoch: 21 January)

Date Brightness Start Highest point End Pass type
(mag) Time Alt. Az. Time Alt. Az. Time Alt. Az.
22 Jan 7.7 12:28:14 10° N 12:37:21 - SSW 12:30:22 33° N visible
23 Jan 9.9 00:37:46 10° WSW 00:39:26 13° W 00:41:05 10° WNW visible
23 Jan 8.4 11:59:15 10° NNE 12:07:55 - S 12:01:17 27° NE visible
23 Jan 8.3 13:33:33 10° NNW 13:35:21 14° WNW 13:35:21 14° WNW visible
24 Jan 9.5 11:30:48 10° NE 11:38:29 - SSE 11:32:12 16° ENE visible
24 Jan 7.5 13:03:23 10° N 13:06:15 28° WNW 13:06:15 28° WNW visible
25 Jan 6.5 12:33:52 10° N 12:43:02 - SSW 12:37:10 63° NW visible
26 Jan 10.1 00:44:01 10° WSW 00:45:03 11° W 00:46:06 10° WNW visible
26 Jan 7.5 12:04:45 10° NNE 12:13:31 - S 12:08:06 47° E visible
26 Jan 8.5 13:39:30 10° NW 13:41:00 12° WNW 13:42:09 11° W visible
27 Jan 9.1 11:36:08 10° NE 11:38:58 21° E 11:39:01 21° E visible
27 Jan 7.6 13:09:02 10° NNW 13:12:03 25° WNW 13:13:05 22° W visible
28 Jan 6.5 12:39:23 10° N 12:42:58 57° WNW 12:44:02 39° SW visible
29 Jan 7.1 12:10:09 10° NNE 12:13:45 57° E 12:15:01 35° SSE visible
29 Jan 8.6 13:45:36 10° NW 13:46:23 11° WNW 13:47:09 10° WNW visible
30 Jan 8.9 11:41:23 10° NE 11:44:24 24° E 11:46:03 18° SE visible
30 Jan 7.8 13:14:34 10° NNW 13:17:24 22° WNW 13:20:07 11° WSW visible
31 Jan 10.0 11:13:51 10° ENE 11:14:54 11° E 11:15:57 10° ESE visible
31 Jan 6.7 12:44:47 10° N 12:48:19 48° WNW 12:51:16 14° SW visible
